Winona, MN

1:51 PM CDT on September 15, 2019 (GMT -0500)
Winona Municipal-Conrad

Weather History for KONA - July, 2019

Change the Weather History Date:

Friday, July 26, 2019

  Actual Average Record
Temperature  
Mean Temperature 78 °F -  
Max Temperature 87 °F 82 °F 92 °F (1949)
Min Temperature 69 °F 63 °F 51 °F (2004)
Cooling Degree Days 13    
Growing Degree Days 28 (Base 50)    
Moisture  
Dew Point 65 °F    
Average Humidity 65    
Maximum Humidity 78    
Minimum Humidity 48    
Precipitation  
Precipitation 0.00 in - - ()
Sea Level Pressure  
Sea Level Pressure 30.00 in    
Wind  
Wind Speed 4 mph (SSW)    
Max Wind Speed 12 mph    
Max Gust Speed 21 mph    
Visibility 10 miles    
Events Thunderstorm    
Averages and records for this station are not official NWS values.
T = Trace of Precipitation, MM = Missing Value Source: NWS Daily Summary

Daily Weather History Graph

Daily Weather History Graph

Search for Another Location

Airport or City:

Astronomy

Jul. 26, 2019 Rise Set
Actual Time 5:48 AM CDT 8:37 PM CDT
Civil Twilight 5:14 AM CDT 9:11 PM CDT
Nautical Twilight 4:31 AM CDT 9:54 PM CDT
Astronomical Twilight 3:41 AM CDT 10:43 PM CDT
Moon 1:05 AM CDT (7/26) 3:20 PM CDT (7/26)
Length of Visible Light 15h 57m
Length of Day
14h 49m
Waning Crescent, 34% of the Moon is Illuminated
Jul 26
Waning Crescent
Jul 31
New
Aug 7
First Quarter
Aug 15
Full
Aug 23
Last Quarter

Hourly Weather History & Observations

Time (CDT) Temp. Heat Index Dew Point Humidity Pressure Visibility Wind Dir Wind Speed Gust Speed Precip Events Conditions
12:55 AM 69.8 °F - 62.6 °F 78% 30.07 in 10.0 mi Calm Calm - N/A   Overcast
1:55 AM 69.8 °F - 62.6 °F 78% 30.07 in 10.0 mi Calm Calm - N/A   Overcast
2:55 AM 69.8 °F - 62.6 °F 78% 30.07 in 10.0 mi Calm Calm - N/A   Overcast
3:55 AM 69.8 °F - 60.8 °F 73% 30.05 in 10.0 mi SSE 4.6 mph - N/A   Overcast
4:55 AM 71.6 °F - 60.8 °F 69% 30.03 in 10.0 mi South 4.6 mph - N/A   Overcast
5:55 AM 73.4 °F - 64.4 °F 73% 30.05 in 10.0 mi South 8.1 mph - N/A   Overcast
6:55 AM 71.6 °F - 62.6 °F 73% 30.03 in 10.0 mi South 6.9 mph - N/A   Scattered Clouds
7:55 AM 75.2 °F - 64.4 °F 69% 30.04 in 10.0 mi SSW 4.6 mph - N/A   Mostly Cloudy
8:55 AM 75.2 °F - 64.4 °F 69% 30.05 in 10.0 mi SSW 5.8 mph - N/A   Overcast
9:55 AM 75.2 °F - 64.4 °F 69% 30.04 in 10.0 mi Calm Calm - N/A   Scattered Clouds
10:55 AM 77.0 °F - 64.4 °F 65% 30.03 in 10.0 mi SSW 6.9 mph - N/A Thunderstorm Mostly Cloudy
11:55 AM 77.0 °F - 62.6 °F 61% 30.01 in 10.0 mi SSW 8.1 mph - N/A   Clear
12:55 PM 82.4 °F 84.6 °F 66.2 °F 58% 30.00 in 10.0 mi SW 4.6 mph - N/A   Scattered Clouds
1:55 PM 82.4 °F 83.9 °F 64.4 °F 54% 29.98 in 10.0 mi SW 10.4 mph 20.7 mph N/A   Scattered Clouds
2:55 PM 86.0 °F 87.3 °F 64.4 °F 48% 29.98 in 10.0 mi SW 10.4 mph 17.3 mph N/A   Scattered Clouds
3:55 PM 86.0 °F 88.2 °F 66.2 °F 51% 29.97 in 10.0 mi WSW 11.5 mph 20.7 mph N/A   Scattered Clouds
4:55 PM 87.8 °F 90.4 °F 66.2 °F 49% 29.97 in 10.0 mi WSW 10.4 mph - N/A   Scattered Clouds
5:55 PM 87.8 °F 90.4 °F 66.2 °F 49% 29.95 in 10.0 mi SW 6.9 mph 17.3 mph N/A   Scattered Clouds
6:55 PM 84.2 °F 86.6 °F 66.2 °F 55% 29.94 in 10.0 mi SW 4.6 mph - N/A   Mostly Cloudy
7:55 PM 82.4 °F 85.4 °F 68.0 °F 62% 29.95 in 10.0 mi SW 3.5 mph - N/A   Scattered Clouds
8:55 PM 78.8 °F - 66.2 °F 65% 29.95 in 10.0 mi Calm Calm - N/A   Clear
9:55 PM 78.8 °F - 68.0 °F 69% 29.94 in 10.0 mi Calm Calm - N/A   Clear
10:55 PM 78.8 °F - 68.0 °F 69% 29.93 in 10.0 mi SW 9.2 mph - N/A   Clear
11:55 PM 77.0 °F - 66.2 °F 69% 29.96 in 10.0 mi SW 9.2 mph 16.1 mph N/A   Clear